Notices

What's New in latest Release from April 7th, 2021:

- Updated Glossary, including Speed of Maximum Gust, and Total Hourly Precipitation

- Updated national and regional climate services offices contacts and prices information

- Addition of station inventory lists for 1981-2010, 1971-2000, and 1961-1990 Normals.

If you haven't already, please take our survey and provide feedback about our website: https://eccc.sondage-survey.ca/f/LanguageSelection.aspx?s=442ca660-fcf1-47c0-95a9-59707d6fd709

Hourly Data Report for July 31, 2018

TORONTO CITY
ONTARIO
Current Station Operator: ECCC - MSC

43°40'00.000" N
79°24'00.000" W
112.50 m
6158355
71508
XTO

Download Data

Hourly Data (July 2018)
Hourly Data Report for July 31, 2018
TIME
LST
Temp Definition
°C
Dew Point Definition
°C
Rel Hum Definition
%
Precip. Amount Definition
mm

Wind Dir Definition
10's deg

Wind Spd Definition
km/h
Visibility Definition
km
Stn Press Definition
kPa
Hmdx Definition


Wind Chill Definition


Weather Definition


00:00 21.3 17.5 79 0.0 LegendMM LegendMM   100.46 27   LegendNANA
01:00 21.2 17.4 79 0.0 LegendMM LegendMM   100.44 27   LegendNANA
02:00 20.9 18.0 84 0.0 LegendMM LegendMM   100.46 27   LegendNANA
03:00 20.6 16.9 80 0.0 LegendMM LegendMM   100.44 26   LegendNANA
04:00 20.1 16.4 79 0.0 LegendMM LegendMM   100.46 25   LegendNANA
05:00 19.6 16.1 80 0.0 LegendMM LegendMM   100.46     LegendNANA
06:00 19.8 16.9 83 0.0 LegendMM LegendMM   100.48     LegendNANA
07:00 20.9 17.4 80 0.0 LegendMM LegendMM   100.48 26   LegendNANA
08:00 22.4 17.0 71 0.0 LegendMM LegendMM   100.51 28   LegendNANA
09:00 23.6 17.0 67 0.0 LegendMM LegendMM   100.49 29   LegendNANA
10:00 24.0 16.5 63 0.0 LegendMM LegendMM   100.49 29   LegendNANA
11:00 23.5 16.9 66 0.0 LegendMM LegendMM   100.51 29   LegendNANA
12:00 23.9 16.7 64 0.0 LegendMM LegendMM   100.51 29   LegendNANA
13:00 24.8 17.6 64 0.0 LegendMM LegendMM   100.46 31   LegendNANA
14:00 24.6 17.6 65 0.0 LegendMM LegendMM   100.39 30   LegendNANA
15:00 23.5 17.3 68 0.0 LegendMM LegendMM   100.35 29   LegendNANA
16:00 23.4 17.7 71 0.0 LegendMM LegendMM   100.28 29   LegendNANA
17:00 23.5 17.5 69 0.0 LegendMM LegendMM   100.30 29   LegendNANA
18:00 23.3 17.6 70 0.0 LegendMM LegendMM   100.22 29   LegendNANA
19:00 23.0 17.2 70 0.0 LegendMM LegendMM   100.18 28   LegendNANA
20:00 23.3 16.7 66 0.0 LegendMM LegendMM   100.14 28   LegendNANA
21:00 23.0 17.7 72 0.0 LegendMM LegendMM   100.14 29   LegendNANA
22:00 22.4 18.8 80 0.0 LegendMM LegendMM   100.11 29   LegendNANA
23:00 22.5 19.3 82 0.0 LegendMM LegendMM   100.04 30   LegendNANA

Notes on Data Quality.

Legend

  • E = Estimated
  • M = Missing
  • NA = Not Available*
  • [empty] = Indicates an unobserved value
Date modified: